When you browse on this site, cookies collect data to enhance your experience and personalize the content and advertising you see.
Visit our Privacy Policy to learn more. By continuing to use the site, you agree to this use of cookies and data.
  • Em Portugal
  • Lista de países
  • Para 7 dias
  • Temperatura da água
  • Mapa do tempo
  • Widgets de tempo
  • user-avatar
    Iniciar Sessão

    Previsão horária em Edige

    Hoje, 22 Agosto, Quinta-feira

    Tempo Temperatura Precipitação Vento Pressão Humidade
    00:00 +25°C° 0 mm 5 m/s 760 mmHg 60%
    01:00 +25°C° 0 mm 5 m/s 760 mmHg 60%
    02:00 +25°C° 0 mm 4 m/s 760 mmHg 59%
    03:00 +25°C° 0 mm 5 m/s 760 mmHg 58%
    04:00 +25°C° 0 mm 4 m/s 760 mmHg 56%
    05:00 +25°C° 0 mm 4 m/s 760 mmHg 54%
    06:00 +25°C° 0 mm 4 m/s 760 mmHg 52%
    07:00 +29°C° 0 mm 4 m/s 760 mmHg 41%
    08:00 +33°C° 0 mm 5 m/s 760 mmHg 31%
    09:00 +38°C° 0 mm 6 m/s 760 mmHg 20%
    10:00 +39°C° 0 mm 7 m/s 759 mmHg 18%
    11:00 +40°C° 0 mm 7 m/s 759 mmHg 16%
    12:00 +41°C° 0 mm 8 m/s 759 mmHg 15%
    13:00 +41°C° 0 mm 8 m/s 759 mmHg 15%
    14:00 +42°C° 0 mm 9 m/s 759 mmHg 16%
    15:00 +42°C° 0 mm 9 m/s 758 mmHg 16%
    16:00 +39°C° 0 mm 8 m/s 758 mmHg 19%
    17:00 +37°C° 0 mm 8 m/s 758 mmHg 22%
    18:00 +35°C° 0 mm 7 m/s 759 mmHg 25%
    19:00 +32°C° 0 mm 6 m/s 759 mmHg 34%
    20:00 +29°C° 0 mm 6 m/s 759 mmHg 43%
    21:00 +27°C° 0 mm 5 m/s 760 mmHg 52%
    22:00 +27°C° 0 mm 5 m/s 760 mmHg 53%
    23:00 +27°C° 0 mm 5 m/s 759 mmHg 54%

    Amanhã, 23 Agosto, Sexta-feira

    Tempo Temperatura Precipitação Vento Pressão Humidade
    00:00 +26°C° 0 mm 5 m/s 759 mmHg 55%
    01:00 +26°C° 0 mm 4 m/s 759 mmHg 55%
    02:00 +25°C° 0 mm 4 m/s 759 mmHg 56%
    03:00 +25°C° 0 mm 3 m/s 760 mmHg 56%
    04:00 +25°C° 0 mm 2 m/s 759 mmHg 57%
    05:00 +25°C° 0 mm 2 m/s 759 mmHg 58%
    06:00 +25°C° 0 mm 1 m/s 759 mmHg 59%
    07:00 +28°C° 0 mm 2 m/s 760 mmHg 50%
    08:00 +30°C° 0 mm 2 m/s 760 mmHg 41%
    09:00 +34°C° 0 mm 2 m/s 760 mmHg 33%
    10:00 +37°C° 0 mm 4 m/s 759 mmHg 27%
    11:00 +40°C° 0 mm 6 m/s 759 mmHg 21%
    12:00 +44°C° 0 mm 7 m/s 759 mmHg 15%
    13:00 +44°C° 0 mm 8 m/s 759 mmHg 15%
    14:00 +43°C° 0 mm 8 m/s 759 mmHg 15%
    15:00 +43°C° 0 mm 9 m/s 758 mmHg 14%
    16:00 +40°C° 0 mm 8 m/s 758 mmHg 18%
    17:00 +38°C° 0 mm 7 m/s 759 mmHg 22%
    18:00 +35°C° 0 mm 6 m/s 759 mmHg 26%
    19:00 +33°C° 0 mm 5 m/s 759 mmHg 34%
    20:00 +30°C° 0 mm 5 m/s 759 mmHg 41%
    21:00 +28°C° 0 mm 4 m/s 760 mmHg 48%
    22:00 +27°C° 0 mm 3 m/s 760 mmHg 52%
    23:00 +27°C° 0 mm 3 m/s 759 mmHg 55%

    Depois de amanhã, 24 Agosto, Sábado

    Tempo Temperatura Precipitação Vento Pressão Humidade
    00:00 +26°C° 0 mm 2 m/s 759 mmHg 59%
    01:00 +26°C° 0 mm 2 m/s 759 mmHg 62%
    02:00 +25°C° 0 mm 2 m/s 759 mmHg 65%
    03:00 +25°C° 0 mm 2 m/s 759 mmHg 68%
    04:00 +25°C° 0.2 mm 2 m/s 759 mmHg 68%
    05:00 +25°C° 0.2 mm 2 m/s 760 mmHg 69%
    06:00 +25°C° 0.2 mm 1 m/s 760 mmHg 69%
    07:00 +27°C° 0 mm 2 m/s 760 mmHg 59%
    08:00 +29°C° 0 mm 2 m/s 760 mmHg 50%
    09:00 +32°C° 0 mm 2 m/s 760 mmHg 41%
    10:00 +34°C° 0 mm 2 m/s 760 mmHg 36%
    11:00 +36°C° 0 mm 2 m/s 760 mmHg 31%
    12:00 +38°C° 0 mm 2 m/s 760 mmHg 26%
    13:00 +38°C° 0 mm 2 m/s 759 mmHg 25%
    14:00 +39°C° 0 mm 2 m/s 759 mmHg 24%
    15:00 +40°C° 0 mm 2 m/s 759 mmHg 22%
    16:00 +39°C° 0 mm 2 m/s 759 mmHg 26%
    17:00 +38°C° 0 mm 3 m/s 759 mmHg 29%
    18:00 +37°C° 0 mm 3 m/s 759 mmHg 32%
    19:00 +34°C° 0 mm 3 m/s 760 mmHg 41%
    20:00 +32°C° 0 mm 4 m/s 760 mmHg 50%
    21:00 +28°C° 0 mm 4 m/s 761 mmHg 59%
    22:00 +28°C° 0.1 mm 3 m/s 761 mmHg 59%
    23:00 +28°C° 0.1 mm 3 m/s 761 mmHg 59%

    25 Agosto, Domingo

    Tempo Temperatura Precipitação Vento Pressão Humidade
    00:00 +27°C° 0.1 mm 2 m/s 761 mmHg 59%
    01:00 +27°C° 0 mm 2 m/s 761 mmHg 58%
    02:00 +27°C° 0 mm 3 m/s 761 mmHg 57%
    03:00 +27°C° 0 mm 3 m/s 761 mmHg 56%
    04:00 +27°C° 0.1 mm 3 m/s 761 mmHg 56%
    05:00 +28°C° 0.1 mm 2 m/s 761 mmHg 55%
    06:00 +28°C° 0.1 mm 2 m/s 761 mmHg 55%
    07:00 +29°C° 0 mm 2 m/s 761 mmHg 50%
    08:00 +30°C° 0 mm 2 m/s 761 mmHg 46%
    09:00 +31°C° 0 mm 3 m/s 762 mmHg 42%
    10:00 +33°C° 0 mm 3 m/s 761 mmHg 40%
    11:00 +33°C° 0 mm 3 m/s 761 mmHg 38%
    12:00 +33°C° 0 mm 3 m/s 761 mmHg 36%
    13:00 +35°C° 0 mm 4 m/s 761 mmHg 32%
    14:00 +36°C° 0 mm 5 m/s 761 mmHg 29%
    15:00 +39°C° 0 mm 6 m/s 760 mmHg 25%
    16:00 +38°C° 0 mm 6 m/s 760 mmHg 26%
    17:00 +36°C° 0 mm 6 m/s 760 mmHg 27%
    18:00 +35°C° 0 mm 7 m/s 760 mmHg 28%
    19:00 +32°C° 0 mm 6 m/s 761 mmHg 38%
    20:00 +29°C° 0 mm 5 m/s 761 mmHg 48%
    21:00 +26°C° 0 mm 4 m/s 761 mmHg 58%
    22:00 +26°C° 0 mm 4 m/s 761 mmHg 58%
    23:00 +26°C° 0 mm 4 m/s 761 mmHg 58%

    26 Agosto, Segunda-feira

    Tempo Temperatura Precipitação Vento Pressão Humidade
    00:00 +26°C° 0 mm 3 m/s 761 mmHg 58%
    01:00 +25°C° 0 mm 3 m/s 761 mmHg 59%
    02:00 +25°C° 0 mm 2 m/s 761 mmHg 59%
    03:00 +25°C° 0 mm 2 m/s 761 mmHg 60%
    04:00 +25°C° 0.1 mm 2 m/s 761 mmHg 62%
    05:00 +24°C° 0.1 mm 2 m/s 761 mmHg 63%
    06:00 +24°C° 0.1 mm 2 m/s 761 mmHg 65%
    07:00 +26°C° 0 mm 2 m/s 761 mmHg 57%
    08:00 +28°C° 0 mm 2 m/s 761 mmHg 48%
    09:00 +31°C° 0 mm 2 m/s 762 mmHg 40%
    10:00 +33°C° 0 mm 3 m/s 762 mmHg 34%
    11:00 +35°C° 0 mm 3 m/s 762 mmHg 28%
    12:00 +37°C° 0 mm 4 m/s 762 mmHg 23%
    13:00 +37°C° 0 mm 5 m/s 762 mmHg 24%
    14:00 +36°C° 0 mm 7 m/s 762 mmHg 25%
    15:00 +37°C° 0 mm 8 m/s 762 mmHg 26%
    16:00 +34°C° 0 mm 8 m/s 763 mmHg 35%
    17:00 +32°C° 0 mm 8 m/s 763 mmHg 44%
    18:00 +29°C° 0 mm 9 m/s 763 mmHg 52%
    19:00 +28°C° 0 mm 8 m/s 764 mmHg 57%
    20:00 +26°C° 0 mm 7 m/s 765 mmHg 62%
    21:00 +24°C° 0 mm 6 m/s 765 mmHg 66%
    22:00 +25°C° 0 mm 5 m/s 765 mmHg 69%
    23:00 +23°C° 0 mm 5 m/s 766 mmHg 72%

    27 Agosto, Terça-feira

    Tempo Temperatura Precipitação Vento Pressão Humidade
    00:00 +23°C° 0 mm 4 m/s 766 mmHg 75%
    01:00 +23°C° 0 mm 4 m/s 766 mmHg 77%
    02:00 +22°C° 0 mm 4 m/s 766 mmHg 79%
    03:00 +22°C° 0 mm 4 m/s 766 mmHg 81%
    04:00 +22°C° 0 mm 5 m/s 766 mmHg 78%
    05:00 +22°C° 0 mm 6 m/s 766 mmHg 74%
    06:00 +23°C° 0 mm 6 m/s 766 mmHg 71%
    07:00 +26°C° 0 mm 7 m/s 766 mmHg 60%
    08:00 +28°C° 0 mm 8 m/s 767 mmHg 49%
    09:00 +31°C° 0 mm 9 m/s 767 mmHg 38%
    10:00 +31°C° 0 mm 9 m/s 766 mmHg 37%
    11:00 +32°C° 0 mm 10 m/s 766 mmHg 35%
    12:00 +33°C° 0 mm 10 m/s 766 mmHg 34%
    13:00 +32°C° 0 mm 10 m/s 766 mmHg 34%
    14:00 +32°C° 0 mm 10 m/s 766 mmHg 35%
    15:00 +31°C° 0 mm 10 m/s 765 mmHg 36%
    16:00 +29°C° 0 mm 10 m/s 766 mmHg 39%
    17:00 +27°C° 0 mm 9 m/s 766 mmHg 42%
    18:00 +26°C° 0 mm 8 m/s 766 mmHg 45%
    19:00 +24°C° 0 mm 7 m/s 766 mmHg 53%
    20:00 +23°C° 0 mm 6 m/s 766 mmHg 61%
    21:00 +21°C° 0 mm 6 m/s 766 mmHg 69%
    22:00 +21°C° 0 mm 6 m/s 766 mmHg 69%
    23:00 +21°C° 0 mm 6 m/s 766 mmHg 69%
    Mostrar mais